[[{"header":{"parameterUnit":"m.s-1","parameterCategory":1,"la1":30.2991,"la2":30.254,"lo1":-89.0895,"lo2":-89.0444,"dy":0.0017,"dx":0.0017,"nx":28,"ny":28,"refTime":"2025-12-21T09:00:00:Z","depth":0,"parameterNumber":2,"parameterNumberName":"U-component_of_WINDS"},"data":[0,0,0,0,0,0,0,0,0,0,0,0,0,0,0,0,0,0,0,0,0,0,0,0,0,0,0,0,0,0,0,0,0,0,0,0,0,0,0,0,0,0,0,0,0,0,0,0,0,0,0,0,0,0,0,0,0,0,-3.5679,-3.568,0,-3.5838,-3.584,-3.5841,-3.5855,-3.5854,-3.5852,-3.585,-3.6015,-3.602,-3.6026,0,0,0,0,0,0,0,0,0,0,0,0,0,-3.5388,-3.5393,-3.5679,-3.5681,-3.5683,-3.5837,-3.584,-3.5842,-3.5856,-3.5854,-3.5852,-3.585,-3.6013,-3.602,-3.6027,0,0,0,0,0,0,0,0,0,0,0,0,0,-3.5527,-3.5395,-3.5678,-3.5708,-3.5712,-3.5837,-3.584,-3.5842,-3.5856,-3.5854,-3.5851,-3.5849,-3.601,-3.6019,-3.6028,-3.6134,0,0,-3.6055,-3.6059,0,0,0,0,0,0,0,0,-3.552,-3.5538,-3.5702,-3.5706,-3.5711,-3.5824,-3.5797,-3.594,-3.5857,-3.5802,-3.585,-3.5847,-3.5953,-3.5967,-3.6002,-3.6142,-3.6149,-3.6056,-3.6061,-3.6065,-3.6068,0,0,0,0,0,0,0,-3.551,-3.5531,-3.5742,-3.5704,-3.571,-3.5714,-3.5731,-3.5825,-3.589,-3.5806,-3.5808,-3.5826,-3.5955,-3.5994,-3.6006,-3.6151,-3.6056,-3.6064,-3.6069,-3.6073,-3.6386,-3.6389,0,0,0,0,0,0,-3.5494,-3.5523,-3.5737,-3.5746,-3.5607,-3.5721,-3.574,-3.5791,-3.5889,-3.5901,-3.5828,-3.5826,-3.598,-3.5996,-3.6012,-3.6143,-3.6065,-3.6073,-3.6079,-3.6383,-3.6387,-3.639,0,0,0,0,0,0,-3.5488,-3.5513,-3.573,-3.5635,-3.5663,-3.5729,-3.5785,-3.5795,-3.5833,-3.5905,-3.5917,-3.5855,-3.5978,-3.5999,-3.6103,-3.6149,-3.6077,-3.6086,-3.6379,-3.6384,-3.6388,-3.6405,0,0,0,0,0,0,-3.548,-3.5511,-3.5551,-3.5636,-3.5668,-3.5818,-3.5788,-3.58,-3.5848,-3.5847,-3.5934,-3.5946,-3.5978,-3.609,-3.6112,-3.616,-3.6093,-3.6376,-3.6382,-3.6387,-3.64,-3.6409,-3.6417,0,0,0,0,0,-3.5469,-3.555,-3.5553,-3.5579,-3.572,-3.5821,-3.5839,-3.5874,-3.5852,-3.5893,-3.594,-3.5943,-3.614,-3.6101,-3.6126,-3.6176,-3.6373,-3.638,-3.6386,-3.6397,-3.6407,-3.6416,0,0,0,0,0,0,-3.5469,-3.5562,-3.5566,-3.5677,-3.5741,-3.5823,-3.5876,-3.5885,-3.5956,-3.5953,-3.5993,-3.6013,-3.6115,-3.6157,-3.6111,-3.6285,-3.6254,-3.6266,-3.6254,-3.6264,-3.6272,-3.626,-3.61,0,0,0,0,0,-3.5482,-3.5556,-3.5633,-3.5723,-3.5755,-3.581,-3.5855,-3.5877,-3.5945,-3.5972,-3.6026,-3.6093,-3.617,-3.622,-3.6294,-3.6407,-3.6426,-3.6454,-3.6462,-3.6469,-3.6478,-3.6541,-3.6554,-3.6412,-3.6412,-3.6412,0,0,-3.5509,-3.5569,-3.5613,-3.5724,-3.5776,-3.5852,-3.5833,-3.5914,-3.597,-3.5985,-3.6086,-3.6128,-3.6205,-3.6314,-3.6364,-3.6351,-3.6522,-3.6477,-3.6482,-3.6488,-3.6549,-3.6563,-3.6575,-3.6416,-3.6415,-3.6415,0,0,-3.5597,-3.565,-3.573,-3.5783,-3.5862,-3.5899,-3.5918,-3.6,-3.6028,-3.613,-3.6143,-3.6211,-3.6343,-3.6397,-3.6442,-3.6552,-3.6557,-3.6575,-3.6617,-3.6678,-3.6689,-3.67,-3.6738,-3.6752,-3.6585,-3.6585,-3.6585,0,-3.562,-3.5735,-3.5771,-3.5852,-3.59,-3.5917,-3.5999,-3.6049,-3.6148,-3.6182,-3.6166,-3.6332,-3.6385,-3.6506,-3.6533,-3.6569,-3.6593,-3.6565,-3.6685,-3.6695,-3.6705,-3.6743,-3.6757,-3.6587,-3.6586,-3.6586,-3.6586,0,-3.576,-3.5839,-3.5895,-3.599,-3.6046,-3.6127,-3.6176,-3.6227,-3.6244,-3.6283,-3.6387,-3.6452,-3.654,-3.657,-3.6588,-3.6695,-3.6684,-3.6676,-3.6646,-3.672,-3.6756,-3.6771,-3.6589,-3.6588,-3.6588,-3.6588,0,0,-3.5851,-3.5966,-3.5986,-3.6029,-3.6119,-3.6181,-3.6263,-3.6349,-3.6393,-3.6461,-3.6531,-3.6643,-3.6636,-3.6687,-3.6711,-3.6765,-3.6847,-3.675,-3.6753,-3.6765,-3.6969,-3.6974,-3.699,-3.6852,-3.6855,-3.6857,-3.6962,0,-3.5948,-3.6094,-3.613,-3.6255,-3.6329,-3.6346,-3.6418,-3.6481,-3.6519,-3.6588,-3.663,-3.6709,-3.6694,-3.6725,-3.6778,-3.6826,-3.6888,-3.6819,-3.6917,-3.6921,-3.6896,-3.7009,-3.7014,-3.711,-3.6977,-3.6979,-3.6981,0,-3.6081,-3.6152,-3.6285,-3.6365,-3.6397,-3.6461,-3.6543,-3.6608,-3.668,-3.6704,-3.6762,-3.6781,-3.6867,-3.6834,-3.6955,-3.6906,-3.6949,-3.6979,-3.6984,-3.6993,-3.6954,-3.7021,-3.7142,-3.7156,-3.7003,-3.7002,-3.7,0,-3.6133,-3.6263,-3.6359,-3.6396,-3.6492,-3.6536,-3.6578,-3.6647,-3.6697,-3.6769,-3.6802,-3.6883,-3.6928,-3.6991,-3.7031,-3.7003,-3.7149,-3.7119,-3.7171,-3.717,-3.72,-3.7197,-3.7329,-3.7229,-3.7229,-3.7229,-3.7228,0,-3.6238,-3.6318,-3.6383,-3.6442,-3.6533,-3.6573,-3.6662,-3.6705,-3.6767,-3.6834,-3.6855,-3.6918,-3.6969,-3.7039,-3.7072,-3.7167,-3.7187,-3.7209,-3.7217,-3.7207,-3.7204,-3.7235,-3.7229,-3.7233,-3.7232,-3.7231,-3.723,0,-3.6311,-3.6358,-3.6464,-3.6546,-3.6569,-3.6632,-3.6702,-3.6761,-3.68,-3.6886,-3.6908,-3.697,-3.7054,-3.7102,-3.7208,-3.723,-3.7335,-3.734,-3.731,-3.7314,-3.7363,-3.7357,-3.7518,-3.7541,-3.7427,-3.7428,-3.7429,0,-3.6374,-3.6436,-3.6525,-3.6572,-3.6614,-3.669,-3.674,-3.6783,-3.6835,-3.6922,-3.697,-3.7056,-3.7126,-3.726,-3.7315,-3.7396,-3.7402,-3.7453,-3.7415,-3.7403,-3.7402,-3.7398,-3.7404,-3.7459,-3.746,-3.7461,-3.7462,0,-3.6481,-3.6501,-3.6573,-3.6654,-3.6714,-3.6779,-3.6845,-3.6882,-3.6936,-3.6993,-3.7079,-3.7134,-3.7242,-3.7327,-3.7413,-3.7457,-3.7469,-3.7474,-3.749,-3.748,-3.746,-3.7471,-3.7328,-3.747,-3.7469,-3.7468,-3.7468,-3.7467,-3.655,-3.6606,-3.6677,-3.6757,-3.6811,-3.6872,-3.693,-3.6977,-3.7049,-3.714,-3.7162,-3.7252,-3.7324,-3.7441,-3.7487,-3.7559,-3.755,-3.7573,-3.7579,-3.7584,-3.7586,-3.7449,-3.7575,-3.7575,-3.7575,-3.7575,-3.7575,0,-3.6657,-3.6704,-3.6777,-3.6868,-3.6931,-3.6936,-3.7009,-3.7061,-3.7141,-3.7206,-3.7275,-3.7374,-3.7457,-3.7518,-3.7603,-3.7649,-3.7656,-3.7669,-3.7666,-3.7676,-3.7589,-3.7566,-3.7662,-3.7662,-3.7662,-3.7662,-3.7662,-3.7662,-3.672,-3.6815,-3.6844,-3.6966,-3.7013,-3.7101,-3.7142,-3.7198,-3.7251,-3.736,-3.7429,-3.7468,-3.7533,-3.7622,-3.7698,-3.7715,-3.7744,-3.7757,-3.7773,-3.7691,-3.7682,-3.7673,-3.7651,-3.7763,-3.7763,-3.7854,-3.7854,-3.7855]},{"header":{"parameterUnit":"m.s-1","parameterCategory":1,"la1":30.2991,"la2":30.254,"lo1":-89.0895,"lo2":-89.0444,"dy":0.0017,"dx":0.0017,"nx":28,"ny":28,"refTime":"2025-12-21T09:00:00:Z","depth":0,"parameterNumber":3,"parameterNumberName":"V-component_of_WINDS"},"data":[0,0,0,0,0,0,0,0,0,0,0,0,0,0,0,0,0,0,0,0,0,0,0,0,0,0,0,0,0,0,0,0,0,0,0,0,0,0,0,0,0,0,0,0,0,0,0,0,0,0,0,0,0,0,0,0,0,0,1.1685,1.1685,0,1.1733,1.1734,1.1735,1.1732,1.1731,1.1731,1.173,1.1778,1.178,1.1782,0,0,0,0,0,0,0,0,0,0,0,0,0,1.159,1.1592,1.1685,1.1685,1.1686,1.1733,1.1734,1.1735,1.1732,1.1731,1.1731,1.173,1.1778,1.178,1.1782,0,0,0,0,0,0,0,0,0,0,0,0,0,1.1634,1.1592,1.1685,1.169,1.1691,1.1733,1.1734,1.1735,1.1732,1.1731,1.173,1.1729,1.1777,1.178,1.1783,1.1821,0,0,1.1792,1.1793,0,0,0,0,0,0,0,0,1.1631,1.1637,1.1689,1.169,1.1691,1.1726,1.1718,1.1764,1.1733,1.1717,1.173,1.1729,1.1762,1.1766,1.1777,1.1824,1.1826,1.1792,1.1794,1.1795,1.1796,0,0,0,0,0,0,0,1.1628,1.1635,1.1704,1.169,1.1691,1.1691,1.1696,1.1727,1.1744,1.1718,1.1718,1.1724,1.1762,1.1774,1.1778,1.1826,1.1792,1.1794,1.1796,1.1797,1.191,1.1911,0,0,0,0,0,0,1.1624,1.1633,1.1702,1.1705,1.1658,1.1693,1.1699,1.1716,1.1744,1.1747,1.1725,1.1724,1.177,1.1775,1.178,1.1829,1.1795,1.1797,1.1799,1.1908,1.191,1.1911,0,0,0,0,0,0,1.1622,1.163,1.17,1.1669,1.1678,1.1696,1.1715,1.1717,1.1729,1.1749,1.1752,1.1734,1.1769,1.1776,1.1812,1.183,1.1799,1.1801,1.1907,1.1909,1.1911,1.1926,0,0,0,0,0,0,1.1619,1.163,1.1644,1.167,1.168,1.1731,1.1716,1.1719,1.1735,1.1734,1.1759,1.1762,1.1769,1.1807,1.1815,1.1834,1.1804,1.1905,1.1908,1.191,1.1924,1.1928,1.1931,0,0,0,0,0,1.1616,1.1646,1.1645,1.1653,1.1698,1.1732,1.1738,1.1746,1.1736,1.1751,1.1764,1.1761,1.1827,1.1811,1.1819,1.1839,1.1904,1.1907,1.191,1.1922,1.1927,1.1931,0,0,0,0,0,0,1.1621,1.1649,1.1649,1.1687,1.1708,1.1732,1.1751,1.1751,1.1774,1.1772,1.1781,1.1787,1.1823,1.1835,1.1816,1.188,1.1864,1.1869,1.1871,1.1876,1.188,1.1876,1.1806,0,0,0,0,0,1.1627,1.1652,1.1675,1.1707,1.1717,1.1733,1.1748,1.1753,1.1774,1.1782,1.1798,1.1818,1.1844,1.186,1.1885,1.1925,1.1932,1.1943,1.1947,1.195,1.1954,1.1979,1.1985,1.192,1.192,1.192,0,0,1.1638,1.1657,1.1672,1.1709,1.1725,1.1752,1.174,1.1768,1.1788,1.1786,1.1822,1.1834,1.1857,1.1897,1.1914,1.1907,1.1974,1.1954,1.1956,1.1959,1.1982,1.1988,1.1994,1.1922,1.1922,1.1922,0,0,1.1674,1.169,1.1719,1.1737,1.1762,1.1772,1.178,1.1805,1.1813,1.1849,1.1849,1.1873,1.1916,1.1934,1.1948,1.1993,1.1992,1.2001,1.2021,1.2045,1.205,1.2055,1.2072,1.2079,1.2005,1.2005,1.2005,0,1.1685,1.1725,1.1734,1.1763,1.178,1.1781,1.1812,1.1828,1.1859,1.1871,1.1863,1.1919,1.1935,1.1979,1.1991,1.2002,1.2011,1.1998,1.2049,1.2054,1.2058,1.2075,1.2081,1.2006,1.2006,1.2006,1.2005,0,1.1739,1.1767,1.1788,1.182,1.1839,1.1869,1.1883,1.1901,1.1904,1.1916,1.1954,1.1973,1.2002,1.2013,1.2016,1.2059,1.2054,1.2047,1.2032,1.2065,1.2081,1.2088,1.2007,1.2007,1.2007,1.2006,0,0,1.1777,1.1816,1.1824,1.184,1.1869,1.1891,1.1921,1.1951,1.1967,1.199,1.2016,1.2054,1.2049,1.2066,1.2071,1.2092,1.2128,1.2083,1.2084,1.2092,1.2178,1.2184,1.2191,1.2127,1.2129,1.213,1.2177,0,1.1817,1.1871,1.1881,1.1929,1.1956,1.1958,1.1985,1.2006,1.2018,1.2043,1.2056,1.2084,1.2074,1.2084,1.2105,1.2119,1.2146,1.2116,1.2153,1.2154,1.2148,1.2199,1.2205,1.2248,1.2183,1.2184,1.2185,0,1.1869,1.1895,1.1946,1.1974,1.1986,1.201,1.2039,1.2063,1.2087,1.2095,1.2115,1.2118,1.2151,1.2134,1.218,1.2159,1.2175,1.2184,1.2186,1.2191,1.2172,1.2206,1.2262,1.2269,1.2195,1.2194,1.2193,0,1.1895,1.1942,1.1979,1.1992,1.2025,1.2042,1.2057,1.2081,1.2099,1.2124,1.2137,1.2165,1.2181,1.2204,1.2215,1.2202,1.2261,1.2244,1.2268,1.2268,1.2281,1.228,1.2341,1.2289,1.2289,1.2289,1.2289,0,1.1938,1.1969,1.1991,1.2014,1.205,1.2061,1.2096,1.211,1.2132,1.2158,1.2161,1.2186,1.2199,1.2226,1.2235,1.2272,1.2279,1.2287,1.2289,1.2287,1.2286,1.2298,1.2295,1.2291,1.229,1.229,1.229,0,1.1972,1.1988,1.2029,1.2058,1.2066,1.2091,1.2116,1.2138,1.2151,1.2184,1.2193,1.2213,1.2244,1.2258,1.2297,1.2303,1.2346,1.2346,1.2338,1.2339,1.2363,1.2361,1.2435,1.2446,1.2385,1.2386,1.2386,0,1.1999,1.2024,1.2056,1.2075,1.209,1.2119,1.2138,1.2151,1.2171,1.2203,1.2222,1.2254,1.228,1.2331,1.2349,1.2379,1.238,1.2404,1.2384,1.2383,1.2382,1.2381,1.2384,1.2407,1.2408,1.2409,1.2409,0,1.2046,1.2054,1.2081,1.2113,1.2136,1.2161,1.2186,1.22,1.2217,1.224,1.2273,1.2294,1.2334,1.2367,1.2398,1.2413,1.2415,1.2415,1.2422,1.2421,1.2417,1.2421,1.2349,1.2413,1.2413,1.2412,1.2412,1.2412,1.2079,1.2102,1.2129,1.2161,1.2181,1.2204,1.2228,1.2244,1.2273,1.2308,1.2313,1.2349,1.2375,1.2418,1.2435,1.2463,1.2457,1.2468,1.247,1.2473,1.2476,1.2412,1.2469,1.2469,1.2469,1.2468,1.2468,0,1.2128,1.2146,1.2175,1.221,1.2236,1.2235,1.2263,1.2284,1.2316,1.2341,1.2367,1.2407,1.2439,1.246,1.2492,1.2511,1.2513,1.252,1.2519,1.2523,1.2478,1.2469,1.2518,1.2518,1.2518,1.2518,1.2518,1.2518,1.2156,1.2196,1.2206,1.2257,1.2274,1.2311,1.2327,1.2349,1.2369,1.2413,1.244,1.2454,1.2478,1.2512,1.2542,1.2547,1.256,1.2567,1.2573,1.2531,1.2525,1.2521,1.2512,1.2569,1.257,1.2615,1.2615,1.2616]}]]